When you browse on this site, cookies collect data to enhance your experience and personalize the content and advertising you see.
Visit our Privacy Policy to learn more. By continuing to use the site, you agree to this use of cookies and data.
  • In Denmark
  • List of Countries
  • For 7 days
  • Water Temperature
  • Satellite Maps
  • Weather Map
  • Weather Widgets
  • user-avatar
    Login

    Hourly Weather Besmoynak

    Today, 18 December, Tuesday

    Time Temperature Precipitation Wind Pressure Humidity
    00:00 -2°C° 0 mm 3 mps 633 mmHg 56%
    01:00 -2°C° 0 mm 3 mps 632 mmHg 56%
    02:00 -2°C° 0 mm 3 mps 632 mmHg 56%
    03:00 -2°C° 0 mm 3 mps 632 mmHg 57%
    04:00 -2°C° 0 mm 3 mps 632 mmHg 59%
    05:00 -5°C° 0 mm 4 mps 632 mmHg 64%
    06:00 -5°C° 0.1 mm 3 mps 632 mmHg 66%
    07:00 -5°C° 0.1 mm 3 mps 632 mmHg 69%
    08:00 -4°C° 0.1 mm 2 mps 632 mmHg 71%
    09:00 -5°C° 0.6 mm 2 mps 632 mmHg 77%
    10:00 -6°C° 0.6 mm 3 mps 633 mmHg 83%
    11:00 -7°C° 0 mm 4 mps 632 mmHg 89%
    12:00 -7°C° 0.5 mm 4 mps 632 mmHg 86%
    13:00 -7°C° 0.5 mm 4 mps 633 mmHg 84%
    14:00 -7°C° 0.5 mm 4 mps 633 mmHg 81%
    15:00 -8°C° 0.1 mm 4 mps 633 mmHg 81%
    16:00 -7°C° 0.1 mm 3 mps 633 mmHg 81%
    17:00 -7°C° 0 mm 2 mps 633 mmHg 81%
    18:00 -7°C° 0 mm 2 mps 633 mmHg 79%
    19:00 -7°C° 0 mm 2 mps 633 mmHg 77%
    20:00 -7°C° 0 mm 2 mps 633 mmHg 75%
    21:00 -7°C° 0 mm 2 mps 633 mmHg 73%
    22:00 -7°C° 0 mm 2 mps 633 mmHg 71%
    23:00 -6°C° 0 mm 1 mps 633 mmHg 69%

    Tomorrow, 19 December, Wednesday

    Time Temperature Precipitation Wind Pressure Humidity
    00:00 -6°C° 0 mm 1 mps 632 mmHg 68%
    01:00 -6°C° 0 mm 1 mps 632 mmHg 68%
    02:00 -6°C° 0 mm 1 mps 632 mmHg 67%
    03:00 -6°C° 0 mm 1 mps 632 mmHg 68%
    04:00 -6°C° 0 mm 1 mps 632 mmHg 70%
    05:00 -6°C° 0 mm 1 mps 632 mmHg 71%
    06:00 -6°C° 0.1 mm 1 mps 632 mmHg 73%
    07:00 -6°C° 0.1 mm 1 mps 632 mmHg 75%
    08:00 -6°C° 0.1 mm 1 mps 632 mmHg 77%
    09:00 -4°C° 0.1 mm 1 mps 632 mmHg 76%
    10:00 -4°C° 0.1 mm 1 mps 632 mmHg 75%
    11:00 -3°C° 0.1 mm 1 mps 632 mmHg 74%
    12:00 -3°C° 0.1 mm 1 mps 632 mmHg 75%
    13:00 -3°C° 0.1 mm 1 mps 632 mmHg 76%
    14:00 -3°C° 0.1 mm 1 mps 632 mmHg 76%
    15:00 -3°C° 0.2 mm 1 mps 632 mmHg 79%
    16:00 -3°C° 0.2 mm 1 mps 633 mmHg 81%
    17:00 -4°C° 0.2 mm 1 mps 633 mmHg 84%
    18:00 -4°C° 0.2 mm 1 mps 633 mmHg 84%
    19:00 -4°C° 0.2 mm 1 mps 634 mmHg 85%
    20:00 -4°C° 0.2 mm 1 mps 634 mmHg 85%
    21:00 -4°C° 0.2 mm 1 mps 634 mmHg 86%
    22:00 -4°C° 0.2 mm 1 mps 634 mmHg 86%
    23:00 -4°C° 0.2 mm 1 mps 635 mmHg 87%

    Day after tomorrow, 20 December, Thursday

    Time Temperature Precipitation Wind Pressure Humidity
    00:00 -4°C° 0.2 mm 1 mps 635 mmHg 88%
    01:00 -4°C° 0.2 mm 1 mps 635 mmHg 88%
    02:00 -4°C° 0.2 mm 1 mps 635 mmHg 89%
    03:00 -6°C° 0.3 mm 1 mps 636 mmHg 90%
    04:00 -6°C° 0.3 mm 1 mps 636 mmHg 91%
    05:00 -6°C° 0.3 mm 1 mps 636 mmHg 92%
    06:00 -6°C° 0.3 mm 1 mps 636 mmHg 91%
    07:00 -6°C° 0.3 mm 1 mps 637 mmHg 91%
    08:00 -6°C° 0.3 mm 1 mps 637 mmHg 91%
    09:00 -6°C° 0.2 mm 1 mps 637 mmHg 89%
    10:00 -4°C° 0.2 mm 1 mps 638 mmHg 87%
    11:00 -4°C° 0.2 mm 1 mps 638 mmHg 85%
    12:00 -4°C° 0.2 mm 1 mps 638 mmHg 85%
    13:00 -4°C° 0.2 mm 1 mps 638 mmHg 85%
    14:00 -4°C° 0.2 mm 1 mps 637 mmHg 85%
    15:00 -4°C° 0.2 mm 1 mps 638 mmHg 87%
    16:00 -6°C° 0.2 mm 1 mps 638 mmHg 89%
    17:00 -7°C° 0.2 mm 2 mps 638 mmHg 91%
    18:00 -6°C° 0.2 mm 1 mps 638 mmHg 91%
    19:00 -7°C° 0.2 mm 1 mps 638 mmHg 91%
    20:00 -7°C° 0.2 mm 1 mps 639 mmHg 91%
    21:00 -7°C° 0.1 mm 1 mps 639 mmHg 90%
    22:00 -8°C° 0.1 mm 2 mps 639 mmHg 89%
    23:00 -9°C° 0.1 mm 2 mps 639 mmHg 89%

    21 December, Friday

    Time Temperature Precipitation Wind Pressure Humidity
    00:00 -9°C° 0 mm 2 mps 638 mmHg 87%
    01:00 -9°C° 0 mm 2 mps 638 mmHg 86%
    02:00 -10°C° 0 mm 2 mps 638 mmHg 84%
    03:00 -10°C° 0 mm 2 mps 638 mmHg 82%
    04:00 -12°C° 0 mm 3 mps 638 mmHg 80%
    05:00 -12°C° 0 mm 3 mps 638 mmHg 78%
    06:00 -12°C° 0 mm 3 mps 638 mmHg 75%
    07:00 -12°C° 0 mm 3 mps 638 mmHg 73%
    08:00 -12°C° 0 mm 3 mps 638 mmHg 71%
    09:00 -10°C° 0 mm 3 mps 638 mmHg 69%
    10:00 -9°C° 0 mm 3 mps 638 mmHg 68%
    11:00 -8°C° 0 mm 3 mps 637 mmHg 66%
    12:00 -7°C° 0 mm 3 mps 637 mmHg 66%
    13:00 -7°C° 0 mm 3 mps 636 mmHg 66%
    14:00 -7°C° 0 mm 3 mps 636 mmHg 66%
    15:00 -8°C° 0 mm 3 mps 635 mmHg 66%
    16:00 -9°C° 0 mm 3 mps 635 mmHg 66%
    17:00 -10°C° 0 mm 3 mps 635 mmHg 66%
    18:00 -10°C° 0 mm 3 mps 635 mmHg 66%
    19:00 -10°C° 0 mm 3 mps 635 mmHg 65%
    20:00 -10°C° 0 mm 3 mps 634 mmHg 64%
    21:00 -10°C° 0 mm 3 mps 634 mmHg 64%
    22:00 -10°C° 0 mm 3 mps 634 mmHg 64%
    23:00 -10°C° 0 mm 3 mps 633 mmHg 64%

    22 December, Saturday

    Time Temperature Precipitation Wind Pressure Humidity
    00:00 -9°C° 0 mm 3 mps 633 mmHg 63%
    01:00 -9°C° 0 mm 3 mps 632 mmHg 62%
    02:00 -9°C° 0 mm 3 mps 632 mmHg 61%
    03:00 -9°C° 0 mm 3 mps 632 mmHg 59%
    04:00 -9°C° 0 mm 3 mps 631 mmHg 58%
    05:00 -9°C° 0 mm 3 mps 631 mmHg 57%
    06:00 -8°C° 0 mm 2 mps 631 mmHg 56%
    07:00 -7°C° 0 mm 2 mps 631 mmHg 54%
    08:00 -7°C° 0 mm 2 mps 631 mmHg 53%
    09:00 -6°C° 0 mm 2 mps 631 mmHg 54%
    10:00 -4°C° 0 mm 2 mps 631 mmHg 54%
    11:00 -3°C° 0 mm 2 mps 632 mmHg 55%
    12:00 -3°C° 0 mm 2 mps 631 mmHg 56%
    13:00 -3°C° 0 mm 2 mps 631 mmHg 58%
    14:00 0°C° 0 mm 1 mps 631 mmHg 60%
    15:00 -1°C° 0 mm 1 mps 631 mmHg 61%
    16:00 -2°C° 0 mm 1 mps 631 mmHg 62%
    17:00 -3°C° 0 mm 1 mps 631 mmHg 63%
    18:00 -3°C° 0 mm 1 mps 631 mmHg 62%
    19:00 -3°C° 0 mm 1 mps 631 mmHg 62%
    20:00 -3°C° 0 mm 1 mps 631 mmHg 62%
    21:00 -3°C° 0 mm 1 mps 631 mmHg 62%
    22:00 -3°C° 0 mm 1 mps 631 mmHg 62%
    23:00 -5°C° 0 mm 2 mps 631 mmHg 62%

    23 December, Sunday

    Time Temperature Precipitation Wind Pressure Humidity
    00:00 -5°C° 0 mm 2 mps 631 mmHg 62%
    01:00 -5°C° 0 mm 2 mps 631 mmHg 63%
    02:00 -5°C° 0 mm 2 mps 631 mmHg 64%
    03:00 -5°C° 0 mm 2 mps 630 mmHg 64%
    04:00 -3°C° 0 mm 1 mps 630 mmHg 65%
    05:00 -3°C° 0 mm 1 mps 630 mmHg 65%
    06:00 -3°C° 0 mm 1 mps 630 mmHg 65%
    07:00 -3°C° 0 mm 1 mps 630 mmHg 65%
    08:00 -3°C° 0 mm 1 mps 631 mmHg 66%
    09:00 -2°C° 0 mm 1 mps 631 mmHg 65%
    10:00 -1°C° 0 mm 1 mps 631 mmHg 64%
    11:00 +1°C° 0 mm 1 mps 632 mmHg 62%
    12:00 +1°C° 0 mm 1 mps 631 mmHg 65%
    13:00 +1°C° 0 mm 1 mps 631 mmHg 67%
    14:00 +1°C° 0 mm 1 mps 631 mmHg 69%
    15:00 0°C° 0.1 mm 1 mps 632 mmHg 74%
    16:00 -1°C° 0.1 mm 1 mps 632 mmHg 78%
    17:00 -2°C° 0.1 mm 1 mps 632 mmHg 83%
    18:00 -3°C° 0.2 mm 1 mps 632 mmHg 84%
    19:00 -3°C° 0.2 mm 1 mps 633 mmHg 85%
    20:00 -3°C° 0.2 mm 1 mps 633 mmHg 87%
    21:00 -3°C° 0.2 mm 1 mps 633 mmHg 87%
    22:00 -3°C° 0.2 mm 1 mps 633 mmHg 87%
    23:00 -3°C° 0.2 mm 1 mps 633 mmHg 87%
    Show more